Binghamton, NY

2:55 AM EST on December 15, 2019 (GMT -0500)
Binghamton Regional-Link

Weather History for KBGM - November, 2019

Change the Weather History Date:

Friday, November 15, 2019

  Actual Average Record
Temperature  
Mean Temperature 34 °F 39 °F  
Max Temperature 41 °F 45 °F 69 °F (1956)
Min Temperature 26 °F 32 °F 14 °F (1967)
Degree Days  
Heating Degree Days 32 26  
Month to date heating degree days 454 360  
Since 1 July heating degree days 1066 1132  
Cooling Degree Days 0 0  
Month to date cooling degree days 0 0  
Year to date cooling degree days 389 381  
Moisture  
Dew Point 24 °F    
Average Humidity 70    
Maximum Humidity 85    
Minimum Humidity 54    
Precipitation  
Precipitation 0.00 in 0.11 in 1.29 in (2007)
Month to date precipitation 0.82 1.62  
Year to date precipitation 39.33 34.79  
Snow  
Snow 0.00 in 0.20 in 6.10 in (2018)
Month to date snowfall 4.0 1.9  
Since 1 July snowfall 4.0 2.9  
Since 1 September snowfall 4.0 2.9  
Snow Depth 2.00 in    
Sea Level Pressure  
Sea Level Pressure 30.20 in    
Wind  
Wind Speed 10 mph ()    
Max Wind Speed 21 mph    
Max Gust Speed 28 mph    
Visibility 9.8 miles    
Events      
T = Trace of Precipitation, MM = Missing Value Source: Averaged Metar Reports

Daily Weather History Graph

Daily Weather History Graph

Search for Another Location

Airport or City:

Astronomy

Nov. 15, 2019 Rise Set
Actual Time 6:54 AM EST 4:42 PM EST
Civil Twilight 6:23 AM EST 5:12 PM EST
Nautical Twilight 5:50 AM EST 5:46 PM EST
Astronomical Twilight 5:16 AM EST 6:19 PM EST
Moon 7:13 PM EST 9:50 AM EST
Length of Visible Light 10h 48m
Length of Day
9h 48m
Waning Gibbous, 90% of the Moon is Illuminated
Nov 15
Waning Gibbous
Nov 19
Last Quarter
Nov 26
New
Dec 4
First Quarter
Dec 12
Full

Hourly Weather History & Observations

Time (EST) Temp. Windchill Dew Point Humidity Pressure Visibility Wind Dir Wind Speed Gust Speed Precip Events Conditions
12:53 AM 32.0 °F 24.8 °F 19.0 °F 59% 30.19 in 10.0 mi SW 8.1 mph - N/A   Overcast
1:53 AM 32.0 °F 24.2 °F 18.0 °F 56% 30.18 in 10.0 mi SSW 9.2 mph - N/A   Overcast
2:53 AM 30.0 °F 23.2 °F 18.0 °F 61% 30.18 in 10.0 mi SW 6.9 mph - N/A   Clear
3:53 AM 28.9 °F 21.9 °F 17.1 °F 61% 30.18 in 10.0 mi SSW 6.9 mph - N/A   Clear
4:53 AM 28.0 °F 20.8 °F 17.1 °F 63% 30.18 in 10.0 mi SSW 6.9 mph - N/A   Clear
6:53 AM 27.0 °F 19.5 °F 17.1 °F 66% 30.19 in 10.0 mi WSW 6.9 mph - N/A   Clear
7:53 AM 27.0 °F 19.5 °F 18.0 °F 69% 30.21 in 10.0 mi WSW 6.9 mph - N/A   Clear
8:53 AM 30.9 °F 23.5 °F 19.0 °F 61% 30.22 in 10.0 mi WSW 8.1 mph - N/A   Clear
9:53 AM 33.1 °F 24.4 °F 21.9 °F 64% 30.20 in 10.0 mi WSW 11.5 mph - N/A   Clear
10:53 AM 35.1 °F 26.9 °F 23.0 °F 61% 30.18 in 10.0 mi WSW 11.5 mph - N/A   Clear
11:53 AM 37.0 °F 30.4 °F 24.1 °F 59% 30.17 in 10.0 mi West 9.2 mph - N/A   Clear
12:53 PM 37.9 °F 30.0 °F 25.0 °F 60% 30.15 in 10.0 mi West 12.7 mph - N/A   Clear
1:53 PM 39.0 °F 31.4 °F 26.1 °F 60% 30.14 in 10.0 mi WNW 12.7 mph - N/A   Mostly Cloudy
2:49 PM 37.4 °F 29.8 °F 26.6 °F 65% 30.10 in 10.0 mi WNW 11.5 mph 23.0 mph N/A   Overcast
2:53 PM 37.9 °F 29.6 °F 27.0 °F 65% 30.15 in 10.0 mi WNW 13.8 mph 19.6 mph N/A   Overcast
3:53 PM 36.0 °F 27.1 °F 27.0 °F 70% 30.19 in 10.0 mi WNW 13.8 mph 20.7 mph N/A   Overcast
4:01 PM 36.0 °F 27.5 °F 27.0 °F 70% 30.15 in 10.0 mi WNW 12.7 mph 21.9 mph N/A   Overcast
4:29 PM 35.1 °F 26.4 °F 27.0 °F 72% 30.16 in 10.0 mi WNW 12.7 mph 20.7 mph N/A   Overcast
4:53 PM 34.0 °F 23.8 °F 27.0 °F 75% 30.22 in 10.0 mi WNW 16.1 mph 25.3 mph N/A   Overcast
5:07 PM 34.0 °F 22.4 °F 27.0 °F 75% 30.17 in 10.0 mi WNW 20.7 mph 27.6 mph N/A   Overcast
5:12 PM 34.0 °F 23.0 °F 27.0 °F 75% 30.17 in 10.0 mi WNW 18.4 mph 27.6 mph N/A   Overcast
5:53 PM 34.0 °F 25.5 °F 27.0 °F 75% 30.23 in 10.0 mi WNW 11.5 mph - N/A   Overcast
6:39 PM 34.0 °F 25.0 °F 27.0 °F 75% 30.18 in 10.0 mi NNW 12.7 mph - N/A   Overcast
6:53 PM 33.1 °F 24.9 °F 28.0 °F 82% 30.25 in 9.0 mi NNW 10.4 mph - N/A   Overcast
7:04 PM 32.0 °F 21.6 °F 28.0 °F 85% 30.19 in 7.0 mi NNW 15.0 mph 23.0 mph N/A   Overcast
7:17 PM 32.0 °F 23.0 °F 28.0 °F 85% 30.18 in 7.0 mi NW 11.5 mph 23.0 mph N/A   Overcast
7:53 PM 32.0 °F 24.2 °F 24.1 °F 73% 30.25 in 10.0 mi NW 9.2 mph - N/A   Scattered Clouds
8:50 PM 30.2 °F 21.9 °F 24.8 °F 80% 30.21 in 10.0 mi NNW 9.2 mph - N/A   Overcast
8:53 PM 30.9 °F 22.2 °F 24.1 °F 76% 30.27 in 10.0 mi NNW 10.4 mph - N/A   Overcast
9:10 PM 30.9 °F 22.2 °F 24.1 °F 76% 30.22 in 10.0 mi NNW 10.4 mph - N/A   Overcast
9:31 PM 30.9 °F 22.2 °F 24.1 °F 76% 30.23 in 10.0 mi NNW 10.4 mph 23.0 mph N/A   Overcast
9:53 PM 30.9 °F 21.7 °F 25.0 °F 79% 30.29 in 10.0 mi NW 11.5 mph - N/A   Overcast
10:27 PM 30.9 °F 21.7 °F 24.1 °F 76% 30.24 in 10.0 mi NNW 11.5 mph 20.7 mph N/A   Overcast
10:53 PM 30.9 °F 21.2 °F 23.0 °F 72% 30.30 in 10.0 mi NNW 12.7 mph - N/A   Overcast
11:19 PM 30.9 °F 21.7 °F 24.1 °F 76% 30.25 in 10.0 mi NNW 11.5 mph 23.0 mph N/A   Overcast
11:37 PM 30.9 °F 20.7 °F 24.1 °F 76% 30.25 in 10.0 mi NNW 13.8 mph 23.0 mph N/A   Overcast
11:53 PM 30.9 °F 19.4 °F 23.0 °F 72% 30.31 in 10.0 mi North 17.3 mph - N/A   Overcast